Tracking 35237 objects as of 6-Sep-2026
HD Live streaming from Space Station
objects crossing your sky now

COSMOS 2421 DEB


COSMOS 2421 DEB is no longer on orbit


NORAD ID: 32824
Int'l Code: 2006-026BY
Launch date: June 25, 2006
Source: Commonwealth of Independent States (former USSR) (CIS)
Launch site: TYURATAM MISSILE AND SPACE COMPLEX (TTMTR)
Decay date: 2008-07-14

Note: This is SATELLITE DEBRIS
Your satellite tracking list
Your tracking list is empty




NASA's NSSDC Master Catalog

Two Line Element Set (TLE):
1 32824U 06026BY  08196.89579420  .08553990  73361-5  49301-2 0  9994
2 32824 064.9456 344.0816 0025934 314.1573 069.6137 16.17678887 12169
Source of the keplerian elements: AFSPC